Location: Oberkirch
(48.5323°N, 8.0787°E)
Time: 15:38:25
(UTC+00:00)

Tiros 1 despin weight - Pass Details

Date: 07 February 2026
Orbit: 556 x 593 km, 48.2° (Epoch: 5 March)

Event Time Altitude Azimuth Distance (km) Brightness Sun altitude
Rises 20:00:07 0° 250° (WSW) 2,730 ? -33.9°
Reaches altitude 10° 20:02:21 10° 248° (WSW) 1,839 ? -34.3°
Enters shadow 20:02:37 12° 247° (WSW) 1,740 ? -34.3°
